World > North America > United States > Tennessee   City of Clarkesville, TN
Hourly Weather in Clarksville, TennesseeClarksville, Tennessee Hourly Weather

Clarksville, TN Hourly Weather

Hourly Weather Clarksville, TennesseeHourly Weather in Clarksville, TN
Lat: 36.56N, Lon: 87.35W  ICAO: KCKV
Web Search
Clarksville Weather Warning NWS WEATHER ALERT FOR THE CLARKSVILLE, TN AREA - Issued: 517 AM CST Sun Jan 16 2022 Clarksville Weather Warning  

Helpful Tip: You can add this page to Bookmarks by pressing the Ctrl key & d key at the same time. Mac users press command & d.

Feedback

Clarksville Hourly Weather

36 Hour Weather Scroll   °F Click to change Clarksville hourly weather to Imperial units.Click to change Clarksville hourly weather to Metric units. °C
Currently, Overcast, temperature is 31°F-1°C, dew point 24°F-4°C, humidity 76%. Wind direction is NNW at 17 mph27 km/h with visibility of 10.00 mi16 km. Barometric pressure is 29.77 in1008 mb.

Jan 16
NOON

Jan 16
1:00 PM

Jan 16
2:00 PM

Jan 16
3:00 PM

Jan 16
4:00 PM

Jan 16
5:00 PM

Jan 16
6:00 PM

Jan 16
7:00 PM

Jan 16
8:00 PM

Jan 16
9:00 PM

Jan 16
10:00 PM

Jan 16
11:00 PM

Jan 17
MIDNIGHT

Jan 17
1:00 AM

Jan 17
2:00 AM

Jan 17
3:00 AM

Jan 17
4:00 AM

Jan 17
5:00 AM

Jan 17
6:00 AM

Jan 17
7:00 AM

Jan 17
8:00 AM

Jan 17
9:00 AM

Jan 17
10:00 AM

Jan 17
11:00 AM

Jan 17
NOON

Jan 17
1:00 PM

Jan 17
2:00 PM

Jan 17
3:00 PM

Jan 17
4:00 PM

Jan 17
5:00 PM

Jan 17
6:00 PM

Jan 17
7:00 PM

Jan 17
8:00 PM

Jan 17
9:00 PM

Jan 17
10:00 PM

Jan 17
11:00 PM
Cloudy Cloudy Cloudy Cloudy Cloudy Mostly Clear Mostly Clear Mostly Clear Mostly Clear Mostly Clear Mostly Clear Cloudy Cloudy Cloudy Cloudy Cloudy Cloudy Cloudy Cloudy Cloudy Cloudy Cloudy Cloudy Mostly Cloudy Mostly Cloudy Mostly Cloudy Mostly Clear Mostly Clear Mostly Clear Mostly Clear Mostly Clear Mostly Clear Clear Clear Clear Partly Cloudy
Cloudy Cloudy Cloudy Cloudy Cloudy Mostly Clear Mostly Clear Mostly Clear Mostly Clear Mostly Clear Mostly Clear Cloudy Cloudy Cloudy Cloudy Cloudy Cloudy Cloudy Cloudy Cloudy Cloudy Cloudy Cloudy Mostly Cloudy Mostly Cloudy Mostly Cloudy Mostly Clear Mostly Clear Mostly Clear Mostly Clear Mostly Clear Mostly Clear Clear Clear Clear Partly Cloudy
37°F3°C 37°F3°C 37°F3°C 37°F3°C 36°F2°C 34°F1°C 33°F1°C 32°F0°C 32°F0°C 31°F-1°C 31°F-1°C 31°F-1°C 31°F-1°C 31°F-1°C 30°F-1°C 30°F-1°C 30°F-1°C 29°F-2°C 29°F-2°C 30°F-1°C 32°F0°C 33°F1°C 34°F1°C 35°F2°C 36°F2°C 36°F2°C 37°F3°C 37°F3°C 36°F2°C 35°F2°C 34°F1°C 33°F1°C 33°F1°C 32°F0°C 32°F0°C 31°F-1°C
Frozen Precip Frozen Precip Snow Snow Snow Snow Snow - - - - - - - - - - - - - - - - - - - - - - - - - - - - -
32% 32% 32% 32% 32% 32% 32% 0% 0% 0% 0% 0% 0% 3% 3% 3% 3% 3% 3% 4% 4% 4% 4% 4% 4% 0% 0% 0% 0% 0% 0% 0% 0% 0% 0% 0%
25°F-4°C 25°F-4°C 25°F-4°C 25°F-4°C 24°F-4°C 24°F-4°C 23°F-5°C 22°F-6°C 22°F-6°C 21°F-6°C 21°F-6°C 20°F-7°C 20°F-7°C 20°F-7°C 21°F-6°C 21°F-6°C 21°F-6°C 22°F-6°C 22°F-6°C 23°F-5°C 23°F-5°C 24°F-4°C 24°F-4°C 25°F-4°C 25°F-4°C 25°F-4°C 24°F-4°C 24°F-4°C 24°F-4°C 24°F-4°C 24°F-4°C 24°F-4°C 25°F-4°C 25°F-4°C 25°F-4°C 25°F-4°C
61% 61% 61% 61% 61% 66% 66% 66% 66% 66% 66% 63% 63% 63% 69% 69% 69% 75% 75% 75% 69% 69% 66% 67% 64% 64% 59% 59% 61% 64% 66% 69% 72% 75% 75% 78%
N N NNW NNW NNW NW NW NW NW NW WNW WNW W W WNW WNW WNW NW NW NW NW NW NW NW NW NW NW WNW W W SSW SSW SSW SSW SW SW
14 mph 14 mph 11 mph 11 mph 11 mph 13 mph 13 mph 13 mph 12 mph 12 mph 12 mph 10 mph 10 mph 10 mph 13 mph 13 mph 13 mph 15 mph 15 mph 15 mph 15 mph 15 mph 15 mph 15 mph 15 mph 15 mph 12 mph 12 mph 12 mph 6 mph 6 mph 6 mph 3 mph 3 mph 3 mph 3 mph
10 mi16 km 10 mi16 km 10 mi16 km 10 mi16 km 10 mi16 km 10 mi16 km 10 mi16 km 10 mi16 km 10 mi16 km 10 mi16 km 10 mi16 km 10 mi16 km 10 mi16 km 10 mi16 km 10 mi16 km 10 mi16 km 10 mi16 km 10 mi16 km 10 mi16 km 10 mi16 km 10 mi16 km 10 mi16 km 10 mi16 km 10 mi16 km 10 mi16 km 10 mi16 km 10 mi16 km 10 mi16 km 10 mi16 km 10 mi16 km 10 mi16 km 10 mi16 km 10 mi16 km 10 mi16 km 10 mi16 km 10 mi16 km
Hour (CST)
Weather
Clouds
Temperature
Precip. Type
POP
Dewpoint
Humidity
Wind Direction
Wind Speed
Visibility
POP = Probability of Precipitation. ** Indicates missing data/values from model statistics.

24 Hour Forecast

Today - Snow showers until late afternoon, then a chance of snow showers possibly mixed with rain showers and late in the afternoon. Snow accumulation up to 1 inch. Total snow accumulation up to 2 inches. Highs in the mid 30s. North winds 10 to 15 mph. Chance of precipitation near 100%.
Tonight - Cloudy. Lows in the mid 20s. Northwest winds 5 to 15 mph.

48 Hour Forecast API Feed


Sun, Jan 16
Noon

Sun, Jan 16
1:00 pm

Sun, Jan 16
2:00 pm

Sun, Jan 16
3:00 pm

Sun, Jan 16
4:00 pm

Sun, Jan 16
5:00 pm

Sun, Jan 16
6:00 pm

Sun, Jan 16
7:00 pm

Sun, Jan 16
8:00 pm

Sun, Jan 16
9:00 pm

Sun, Jan 16
10:00 pm

Sun, Jan 16
11:00 pm

Mon, Jan 17
Midnight

Mon, Jan 17
1:00 am

Mon, Jan 17
2:00 am

Mon, Jan 17
3:00 am

Mon, Jan 17
4:00 am

Mon, Jan 17
5:00 am

Mon, Jan 17
6:00 am

Mon, Jan 17
7:00 am

Mon, Jan 17
8:00 am

Mon, Jan 17
9:00 am

Mon, Jan 17
10:00 am

Mon, Jan 17
11:00 am

Mon, Jan 17
Noon

Mon, Jan 17
1:00 pm

Mon, Jan 17
2:00 pm

Mon, Jan 17
3:00 pm

Mon, Jan 17
4:00 pm

Mon, Jan 17
5:00 pm

Mon, Jan 17
6:00 pm

Mon, Jan 17
7:00 pm

Mon, Jan 17
8:00 pm

Mon, Jan 17
9:00 pm

Mon, Jan 17
10:00 pm

Mon, Jan 17
11:00 pm

Tue, Jan 18
Midnight

Tue, Jan 18
1:00 am

Tue, Jan 18
2:00 am

Tue, Jan 18
3:00 am

Tue, Jan 18
4:00 am

Tue, Jan 18
5:00 am

Tue, Jan 18
6:00 am

Tue, Jan 18
7:00 am

Tue, Jan 18
8:00 am

Tue, Jan 18
9:00 am

Tue, Jan 18
10:00 am

Tue, Jan 18
11:00 am
Light SleetPartly CloudyPartly CloudySunnySunnyClearClearClearClearClearPartly CloudyClearPartly CloudyCloudyCloudyOvercastOvercastOvercastOvercastOvercastOvercastOvercastLight SnowLight SnowOvercastLight SnowOvercastOvercastLight SnowPartly CloudyClearClearClearClearClearClearClearMistMistMistFreezing FogFreezing FogMistMistMistSunnySunnySunny
Light sleet Partly cloudy Partly cloudy Sunny Sunny Clear Clear Clear Clear Clear Partly cloudy Clear Partly cloudy Cloudy Cloudy Overcast Overcast Overcast Overcast Overcast Overcast Overcast Light snow Light snow Overcast Light snow Overcast Overcast Light snow Partly cloudy Clear Clear Clear Clear Clear Clear Clear Mist Mist Mist Freezing fog Freezing fog Mist Mist Mist Sunny Sunny Sunny
33°F
1°C
35°F
2°C
36°F
2°C
38°F
4°C
39°F
4°C
38°F
4°C
37°F
3°C
36°F
2°C
30°F
-1°C
29°F
-2°C
29°F
-2°C
28°F
-2°C
28°F
-3°C
27°F
-3°C
28°F
-2°C
28°F
-2°C
29°F
-2°C
30°F
-1°C
30°F
-1°C
30°F
-1°C
30°F
-1°C
30°F
-1°C
31°F
-1°C
32°F
0°C
34°F
1°C
34°F
1°C
35°F
2°C
36°F
2°C
37°F
3°C
37°F
3°C
33°F
1°C
32°F
-0°C
29°F
-2°C
29°F
-2°C
28°F
-2°C
28°F
-2°C
28°F
-2°C
28°F
-2°C
28°F
-2°C
28°F
-2°C
28°F
-2°C
28°F
-3°C
28°F
-3°C
28°F
-3°C
28°F
-3°C
30°F
-1°C
34°F
1°C
39°F
4°C
30°F
-1°C
31°F
-0°C
32°F
0°C
34°F
1°C
33°F
1°C
32°F
-0°C
29°F
-2°C
30°F
-1°C
24°F
-4°C
24°F
-4°C
24°F
-4°C
25°F
-4°C
24°F
-4°C
24°F
-4°C
26°F
-4°C
26°F
-3°C
27°F
-3°C
26°F
-3°C
27°F
-3°C
27°F
-3°C
27°F
-3°C
27°F
-3°C
26°F
-3°C
28°F
-2°C
28°F
-2°C
30°F
-1°C
30°F
-1°C
30°F
-1°C
30°F
-1°C
31°F
-1°C
30°F
-1°C
29°F
-2°C
27°F
-3°C
27°F
-3°C
26°F
-3°C
26°F
-3°C
27°F
-3°C
27°F
-3°C
27°F
-3°C
27°F
-3°C
27°F
-3°C
27°F
-3°C
27°F
-3°C
27°F
-3°C
27°F
-3°C
28°F
-2°C
30°F
-1°C
34°F
1°C
29.8 in
1009 mb
29.77 in
1008 mb
29.74 in
1007 mb
29.71 in
1006 mb
29.71 in
1006 mb
29.74 in
1007 mb
29.77 in
1008 mb
29.77 in
1008 mb
29.8 in
1009 mb
29.8 in
1009 mb
29.8 in
1009 mb
29.8 in
1009 mb
29.83 in
1010 mb
29.8 in
1009 mb
29.8 in
1009 mb
29.8 in
1009 mb
29.8 in
1009 mb
29.83 in
1010 mb
29.83 in
1010 mb
29.85 in
1011 mb
29.91 in
1013 mb
29.91 in
1013 mb
29.94 in
1014 mb
29.97 in
1015 mb
30 in
1016 mb
30 in
1016 mb
30 in
1016 mb
30 in
1016 mb
30 in
1016 mb
30.03 in
1017 mb
30.03 in
1017 mb
30.06 in
1018 mb
30.09 in
1019 mb
30.09 in
1019 mb
30.12 in
1020 mb
30.12 in
1020 mb
30.12 in
1020 mb
30.12 in
1020 mb
30.12 in
1020 mb
30.15 in
1021 mb
30.15 in
1021 mb
30.15 in
1021 mb
30.15 in
1021 mb
30.15 in
1021 mb
30.15 in
1021 mb
30.18 in
1022 mb
30.15 in
1021 mb
30.15 in
1021 mb
87%87%85%83%80%77%75%78%78%80%83%85%87%88%89%91%90%84%87%88%88%87%83%83%81%83%82%79%76%78%87%90%91%92%93%93%94%95%96%97%97%97%97%97%96%93%86%80%
NNNNNWNNWNNWNWNWNWWNWWNWWNWWNWWWWWNWWNWWNWWNWWNWWNWWNWWNWWNWWNWWNWWNWWNWWNWWSWWSWWSWWSWWSWSWSWSWSWSWSWSSWSSWSSSSS
13 mph
20 km/h
11 mph
18 km/h
12 mph
19 km/h
13 mph
20 km/h
12 mph
19 km/h
12 mph
20 km/h
12 mph
20 km/h
11 mph
17 km/h
11 mph
17 km/h
11 mph
17 km/h
11 mph
17 km/h
11 mph
17 km/h
10 mph
16 km/h
9 mph
15 km/h
10 mph
16 km/h
11 mph
18 km/h
12 mph
19 km/h
15 mph
24 km/h
13 mph
21 km/h
13 mph
22 km/h
14 mph
22 km/h
13 mph
21 km/h
14 mph
22 km/h
13 mph
21 km/h
13 mph
22 km/h
12 mph
20 km/h
13 mph
20 km/h
11 mph
18 km/h
11 mph
17 km/h
9 mph
14 km/h
5 mph
8 km/h
5 mph
8 km/h
4 mph
7 km/h
4 mph
6 km/h
4 mph
6 km/h
4 mph
6 km/h
5 mph
8 km/h
5 mph
8 km/h
5 mph
8 km/h
5 mph
8 km/h
5 mph
8 km/h
5 mph
8 km/h
5 mph
8 km/h
5 mph
9 km/h
6 mph
9 km/h
6 mph
10 km/h
9 mph
14 km/h
10 mph
15 km/h
0%0%0%0%0%0%0%0%0%0%0%0%0%0%0%0%0%0%0%0%0%0%0%0%0%82%0%0%0%0%0%0%0%0%0%0%0%0%0%0%0%0%0%0%0%0%0%0%
6 mi
9 km
6 mi
10 km
6 mi
10 km
6 mi
10 km
6 mi
10 km
6 mi
10 km
6 mi
10 km
6 mi
10 km
6 mi
10 km
6 mi
10 km
6 mi
10 km
6 mi
10 km
6 mi
10 km
6 mi
10 km
6 mi
10 km
6 mi
10 km
6 mi
10 km
6 mi
10 km
6 mi
10 km
6 mi
10 km
6 mi
10 km
6 mi
10 km
6 mi
10 km
6 mi
10 km
6 mi
10 km
6 mi
10 km
6 mi
10 km
6 mi
10 km
6 mi
10 km
6 mi
10 km
6 mi
10 km
6 mi
10 km
6 mi
10 km
6 mi
10 km
6 mi
10 km
6 mi
10 km
6 mi
10 km
1 mi
2 km
1 mi
2 km
1 mi
2 km
0 mi
0 km
0 mi
0 km
1 mi
2 km
1 mi
2 km
1 mi
2 km
6 mi
10 km
6 mi
10 km
6 mi
10 km

Day/Time
Weather
Condition
Temperature
Dew Point
Pressure
Humidity
Wind Direction
Wind Speed
Prob Precip %
Visibility
Prob Precip % = Probability of Precipitation.